Theta_e
339 340 341 342 344 345 346 346 345 344 344 345 346 346 348 349 350 351 351 352 352 352 354 354 355 356 356 356 355 355 355 355 355 354 354 354 353 353 353 353 354 355 356 356 356 356 354 353 353 355 358 357 356 354 350 346 345 346 345 342 341 340 337
340 340 340 341 344 345 346 346 344 344 344 345 346 346 347 348 350 351 351 351 352 352 353 354 355 355 356 356 355 355 355 355 355 355 354 354 354 353 353 354 355 355 355 355 355 355 354 353 353 355 357 357 356 354 350 346 346 347 346 343 342 341 336
341 341 340 341 343 345 346 346 345 344 344 345 346 347 347 348 349 351 351 352 352 352 353 354 355 355 356 356 356 356 355 355 355 355 355 354 354 353 353 354 354 355 355 355 354 354 353 353 354 355 357 356 355 354 351 347 347 348 347 345 344 341 336
342 342 341 341 343 344 344 346 345 345 344 345 346 347 347 348 349 351 352 352 352 352 353 353 354 356 356 356 356 356 356 356 355 355 355 354 354 354 353 353 354 354 354 354 353 353 353 354 354 355 356 356 355 353 351 348 347 348 347 346 345 341 334
345 343 343 341 342 343 344 345 345 344 345 344 345 346 347 348 349 350 352 353 353 353 353 354 354 355 356 356 356 356 356 356 356 355 355 354 354 354 354 353 353 353 353 353 353 353 354 354 355 355 355 355 354 353 351 349 347 348 347 346 345 340 335
344 344 345 343 342 342 343 344 344 344 345 345 345 346 347 348 348 350 352 353 353 353 353 354 354 354 355 356 356 356 356 356 356 355 355 355 354 354 354 354 354 353 353 353 353 353 354 355 355 355 355 354 353 352 351 350 348 348 347 347 345 341 336
343 344 345 344 343 343 343 343 342 343 344 345 345 346 347 347 348 350 351 353 354 354 354 354 355 355 355 355 356 356 356 356 356 356 355 355 355 354 354 354 354 354 354 353 353 354 354 354 354 354 354 353 353 352 351 351 349 348 347 347 346 342 338
343 345 344 345 345 343 343 344 343 343 343 345 345 346 347 347 348 349 350 353 354 354 354 354 355 355 355 355 355 356 356 356 356 356 356 355 355 355 354 354 354 354 354 354 353 354 354 354 354 354 354 353 352 352 351 351 350 348 347 347 346 342 338
342 344 344 345 344 344 345 344 343 343 342 344 345 346 347 347 348 349 350 351 353 354 355 354 355 355 356 356 355 355 356 355 356 356 356 356 355 356 355 355 355 354 354 354 354 353 354 354 354 353 353 353 352 352 351 351 350 349 348 346 345 343 339
343 344 344 345 343 344 346 345 346 347 346 346 345 345 347 347 348 349 349 351 352 354 354 355 355 355 356 356 356 356 355 355 355 356 356 356 356 356 355 355 355 355 355 355 354 354 354 353 354 353 353 352 352 351 351 350 350 349 348 347 345 343 341
345 346 345 345 345 345 346 346 348 349 349 348 344 346 347 347 349 349 349 351 351 353 355 355 355 356 356 357 357 356 356 356 356 355 356 356 356 356 356 356 356 355 355 355 355 355 354 354 354 353 353 352 351 351 351 350 350 349 348 347 345 344 343
346 349 348 346 346 346 347 349 350 351 352 349 345 346 348 347 349 349 349 351 352 353 355 355 356 356 356 357 357 357 357 357 356 356 356 356 356 356 356 356 356 356 355 356 355 355 354 354 354 353 353 352 351 351 351 350 350 349 349 348 345 344 343
346 349 348 347 346 346 348 350 351 351 352 349 346 347 348 348 349 349 350 351 352 353 355 355 356 356 356 357 357 357 358 358 357 357 356 357 356 357 357 356 357 357 356 356 356 355 355 354 354 353 353 352 351 351 351 350 350 350 349 348 346 344 343
348 348 347 347 346 346 348 350 351 353 352 350 347 347 348 349 349 350 351 351 352 353 355 356 357 357 358 358 357 358 358 358 358 358 357 357 357 357 357 357 357 357 356 357 356 355 355 355 354 353 353 352 352 351 351 350 350 350 349 348 346 344 343
346 345 344 347 347 348 349 348 351 353 353 351 349 348 349 349 350 350 350 351 352 354 355 357 358 358 358 358 358 358 358 358 358 359 358 358 358 357 357 357 357 357 357 357 356 356 355 355 354 354 353 352 352 352 351 351 350 350 349 347 345 344 343
343 343 345 346 348 350 349 348 350 352 353 354 352 349 349 350 350 351 351 352 352 354 356 357 358 359 359 359 359 359 359 359 359 359 359 359 358 358 358 357 357 357 357 357 357 356 356 355 355 354 353 353 352 351 351 351 350 350 349 348 347 345 344
343 342 345 346 347 349 348 348 350 351 353 355 352 350 349 350 351 351 351 352 352 353 355 357 358 359 359 360 360 360 360 360 359 359 360 359 359 359 358 358 358 357 357 357 357 357 356 356 355 355 354 354 353 352 351 351 351 350 349 348 347 347 345
348 344 344 347 350 352 351 351 351 353 354 352 350 349 349 351 352 351 352 352 352 353 355 357 358 359 359 360 360 360 360 360 360 360 360 359 359 359 359 359 358 357 357 357 357 357 356 356 355 355 355 354 353 352 352 351 350 350 349 349 348 348 346
348 343 344 349 353 352 351 349 350 352 353 350 348 348 350 351 351 352 353 352 353 354 354 357 358 358 359 360 360 360 361 360 360 360 360 360 359 359 359 359 358 358 357 356 357 356 356 356 356 355 355 354 354 353 352 352 351 350 349 349 349 349 348
353 349 345 347 351 351 348 349 350 350 348 347 348 349 350 351 352 352 353 353 353 353 354 356 357 358 359 360 360 361 361 360 360 360 360 360 360 359 359 359 359 358 357 356 356 356 356 356 356 356 355 355 354 354 353 352 351 350 350 350 350 350 349
362 358 353 350 350 349 351 353 356 355 349 345 347 349 350 351 352 352 353 353 353 353 354 355 356 358 359 359 360 361 361 361 361 360 360 360 360 360 359 359 359 358 357 357 356 356 356 356 356 356 355 355 355 354 353 353 352 351 350 350 351 351 349
358 355 355 357 355 355 355 352 351 352 349 346 348 350 351 351 352 352 353 353 353 353 354 355 355 356 358 358 360 360 361 361 361 360 360 360 360 360 359 359 359 358 358 357 356 356 356 356 356 356 355 356 355 354 354 353 353 352 351 352 352 352 350
354 353 358 363 359 353 348 345 345 346 345 347 349 349 351 352 352 353 354 354 354 354 354 354 355 356 357 357 359 360 361 361 361 361 361 360 360 360 359 359 359 358 358 358 357 357 356 356 356 356 356 356 355 355 355 354 353 353 352 352 353 352 348
351 353 357 363 366 359 348 343 345 346 345 348 349 348 350 352 352 354 354 354 354 354 354 354 354 355 356 356 358 359 360 361 361 361 361 360 360 360 359 360 359 359 359 358 357 357 357 356 356 356 357 356 356 356 355 354 354 354 353 353 354 352 346
350 351 352 353 360 361 351 343 344 348 347 347 348 349 350 351 353 355 355 355 355 355 354 355 354 355 355 356 357 358 359 361 361 361 361 361 360 360 360 360 359 359 359 358 358 357 357 357 356 356 357 357 356 357 356 355 355 354 354 354 354 352 346
350 351 352 350 349 352 350 347 349 352 351 349 350 351 351 351 353 355 356 356 356 355 355 355 355 355 355 355 356 357 359 360 361 361 361 361 361 360 360 360 359 359 359 359 358 358 357 357 357 357 357 357 357 357 356 356 355 354 355 355 354 352 347
346 346 348 348 347 348 349 349 351 353 352 352 352 353 354 353 353 354 355 357 357 357 357 356 355 356 355 355 356 357 358 360 361 361 361 361 361 361 360 360 360 359 359 359 359 358 357 357 357 357 357 357 357 357 356 356 356 355 355 355 354 353 349
345 345 345 345 345 346 347 348 349 349 352 355 355 356 357 357 355 354 355 356 356 358 358 358 357 357 356 356 356 356 358 359 360 361 362 361 361 361 360 360 360 360 360 359 359 359 358 358 357 357 357 357 357 357 356 356 356 356 356 355 354 353 350
344 345 345 344 345 345 346 349 348 347 349 353 355 358 360 359 359 357 356 356 357 357 358 358 359 358 357 357 356 356 358 359 360 361 361 361 361 361 360 360 360 360 360 360 359 359 358 358 357 356 355 355 355 355 355 356 355 356 356 355 354 353 351
343 342 343 343 343 343 344 347 347 346 348 351 355 358 359 359 360 359 358 359 358 357 358 359 359 359 359 358 357 357 357 358 360 360 361 362 361 361 361 361 360 360 360 360 359 359 357 356 355 354 352 350 351 351 352 354 355 355 355 355 353 352 351
341 341 342 342 342 342 343 345 345 344 346 349 352 354 356 358 358 358 358 360 360 360 360 359 359 359 359 358 358 357 357 358 359 360 361 362 361 361 361 361 360 360 360 359 359 358 355 353 352 350 349 347 347 348 350 351 352 353 353 352 351 351 349
339 340 341 342 342 342 342 344 345 345 345 347 348 350 352 354 355 355 356 359 361 362 361 360 361 360 359 359 358 358 357 358 359 360 361 361 362 362 361 361 360 359 358 358 357 355 352 350 349 348 346 344 344 345 346 347 349 350 349 348 347 348 347
340 341 341 342 342 342 343 344 346 346 346 346 346 347 350 352 352 353 354 357 361 363 363 362 361 360 360 360 359 358 358 358 359 361 361 362 363 362 361 361 360 358 357 356 355 353 350 349 347 346 344 343 342 342 343 344 345 345 345 344 344 344 345
341 342 342 342 342 342 342 343 342 343 344 345 345 346 347 349 350 351 353 356 358 360 363 363 362 362 361 361 360 359 359 359 360 362 362 363 363 362 361 360 358 356 356 355 354 353 350 348 347 346 345 343 340 338 338 339 341 341 341 342 342 342 342
340 341 342 343 342 341 341 341 340 341 341 343 344 345 345 346 348 349 351 354 357 359 358 358 359 361 361 362 362 361 360 361 362 362 363 363 362 361 360 359 358 356 355 354 354 354 352 350 348 347 347 346 343 340 337 336 337 339 341 341 341 341 340
337 338 340 341 342 342 342 342 342 341 340 341 342 343 343 344 346 347 348 350 354 356 353 351 353 355 356 359 361 361 361 362 361 363 363 359 356 354 353 352 354 355 353 350 350 351 352 352 351 350 349 347 345 345 345 342 340 340 339 339 339 338 338
335 337 337 338 340 342 343 343 343 343 341 340 341 342 343 343 344 345 346 347 348 350 348 346 346 346 347 350 353 356 358 357 355 357 356 352 350 348 343 339 340 344 347 347 347 348 349 349 349 352 353 351 347 345 346 346 343 340 338 337 336 336 336
333 335 335 337 339 341 342 343 344 343 342 342 342 343 343 343 343 343 344 345 345 346 345 344 342 340 340 341 343 347 349 349 348 348 346 344 345 345 340 335 333 334 338 343 346 346 346 346 348 350 352 352 349 345 343 342 340 338 336 336 336 336 336
Wind_Speed
17 17 17 16 16 17 17 18 19 21 26 29 32 36 37 38 39 39 39 41 43 43 44 44 44 45 46 46 46 45 44 44 42 41 39 38 37 35 35 36 37 36 36 37 37 38 37 35 34 33 31 31 31 31 32 32 31 28 26 25 25 25 25
15 16 16 16 16 17 18 19 19 22 26 30 33 35 36 37 39 40 40 41 43 43 44 45 45 45 46 46 45 45 44 43 42 40 39 37 36 35 35 36 38 38 37 38 38 38 37 35 35 34 32 32 32 32 33 34 32 31 29 27 26 26 26
16 16 16 17 17 18 19 18 19 23 28 30 32 33 36 39 41 42 42 41 42 42 42 44 45 45 45 45 44 44 45 44 42 40 39 38 37 36 36 36 38 38 38 38 38 37 37 36 35 35 34 33 33 33 34 35 34 32 31 29 28 28 28
17 18 18 19 19 18 19 18 19 23 28 32 34 36 39 43 43 43 43 43 43 42 42 44 44 44 44 44 44 44 44 44 43 42 40 39 38 37 36 36 37 38 37 38 38 37 37 36 36 36 35 34 34 34 35 35 35 34 33 31 30 30 29
17 18 17 16 17 16 17 18 18 22 28 32 35 38 40 42 41 41 42 42 43 45 46 46 45 44 45 45 45 44 45 45 44 42 41 39 38 37 37 37 37 38 38 38 38 37 37 37 37 37 36 36 35 35 35 36 36 35 34 33 32 32 31
16 17 16 15 16 17 18 18 20 25 31 33 35 37 38 38 38 39 41 41 42 43 43 43 44 45 44 45 45 43 43 44 43 42 41 40 38 38 38 39 39 38 38 38 37 38 37 38 38 38 37 37 36 36 36 36 37 37 36 35 34 34 33
16 16 17 17 17 17 19 19 20 26 32 34 35 35 33 34 36 39 39 40 41 41 41 42 44 44 44 44 44 43 42 43 42 42 41 40 39 39 40 40 39 39 38 38 38 38 38 38 39 39 38 38 38 38 37 37 37 37 37 37 36 36 35
18 17 17 18 18 18 19 18 18 23 28 30 29 29 30 33 36 37 38 40 41 40 41 43 44 44 44 43 43 44 44 42 42 42 41 40 40 40 40 41 40 39 38 38 38 38 38 39 40 39 39 39 39 39 38 38 37 37 38 38 38 37 36
18 17 17 17 18 17 17 18 18 19 22 25 26 28 31 33 35 36 39 40 40 40 43 44 44 44 44 43 43 44 43 42 41 41 41 41 41 41 41 41 40 40 39 39 39 38 39 39 39 39 39 39 40 39 39 39 38 38 38 39 38 38 37
16 16 16 16 17 16 16 16 15 15 16 19 23 27 30 32 34 36 38 38 39 42 44 43 42 43 43 43 42 42 41 41 41 41 41 42 42 42 42 41 40 39 40 40 39 38 39 39 39 39 39 39 40 40 40 40 39 38 38 39 39 38 38
11 11 13 14 16 16 15 15 14 14 14 15 21 26 29 32 34 35 36 38 40 42 42 41 41 41 42 42 40 40 41 41 40 41 42 43 42 42 42 41 40 40 40 39 38 38 38 38 38 38 39 40 40 40 40 40 40 39 38 39 39 39 38
10 9 11 14 15 15 15 14 14 15 14 15 20 25 28 30 33 34 36 39 41 40 40 40 41 41 41 41 40 40 40 40 40 41 42 43 42 41 41 40 40 40 40 39 38 37 37 38 38 39 40 41 40 40 40 40 40 40 39 39 39 39 38
10 10 11 13 13 14 14 14 15 16 15 16 21 26 28 30 33 34 36 38 40 40 39 40 41 40 40 40 40 40 40 41 42 41 41 42 42 40 40 40 41 40 40 39 37 37 37 38 38 39 40 40 40 40 40 39 40 40 40 40 39 38 38
11 12 12 13 14 14 15 15 15 16 16 16 20 25 28 30 33 35 36 37 38 38 38 39 39 40 40 40 40 41 42 43 42 41 41 41 41 40 40 40 41 40 39 37 37 38 38 38 38 39 39 39 39 39 39 39 40 40 40 40 39 38 37
10 11 12 14 15 14 13 14 15 15 15 16 17 21 24 27 30 32 33 34 35 37 38 39 39 40 39 39 40 42 42 41 40 40 41 40 40 41 40 40 40 39 38 37 37 38 38 38 38 38 38 38 38 38 39 39 40 41 41 40 39 38 38
11 11 12 14 15 15 15 16 15 14 15 15 15 19 22 25 28 31 32 33 34 36 38 38 39 39 39 40 42 43 41 40 40 40 40 40 41 40 39 39 38 37 37 37 37 37 37 37 37 38 38 37 37 37 38 40 41 42 42 41 40 39 39
12 12 12 14 14 14 14 14 13 13 14 15 16 19 23 25 28 31 32 32 34 37 38 39 39 39 40 42 43 41 40 40 40 40 40 41 40 39 39 38 37 37 37 37 37 37 37 37 37 38 38 38 37 38 39 40 41 41 41 41 41 41 40
13 13 12 12 11 10 11 11 12 12 13 14 16 20 23 25 26 28 29 32 36 38 38 39 39 40 41 42 41 39 40 40 40 40 41 41 40 39 38 37 37 36 36 37 38 38 37 37 38 38 38 38 38 38 39 41 41 40 41 41 41 42 42
10 12 12 12 10 11 13 13 13 15 15 14 17 23 28 30 28 30 34 37 38 37 36 38 39 40 40 40 38 39 40 40 39 40 40 41 40 38 36 36 37 38 38 39 39 38 37 38 39 38 38 37 38 39 40 40 40 40 41 40 41 42 43
6 7 8 9 11 12 12 11 10 11 13 17 22 27 30 32 33 35 38 38 36 35 36 37 38 38 39 38 38 39 39 39 39 40 40 39 38 36 36 38 39 40 40 38 37 37 39 39 39 38 38 38 38 39 40 40 40 40 40 40 41 42 44
4 3 4 6 7 10 11 10 10 9 11 18 25 27 28 30 34 35 35 34 34 35 37 38 38 38 39 38 38 38 39 39 40 40 39 37 37 37 38 40 41 41 40 38 38 40 40 39 39 39 38 39 39 38 38 39 40 40 40 41 41 42 43
3 3 4 4 5 7 9 9 10 13 18 24 26 26 28 32 34 32 30 32 34 35 37 37 36 36 36 35 37 38 39 40 40 39 37 36 37 39 40 41 41 41 40 39 39 39 38 38 39 39 38 38 38 38 38 38 39 39 40 40 40 42 43
6 5 2 1 3 5 6 8 10 11 15 21 25 29 32 34 33 29 27 28 30 31 33 32 32 34 35 35 37 38 38 39 38 37 36 37 39 41 42 42 41 40 39 39 38 38 38 38 38 38 38 38 38 38 38 38 38 39 40 39 39 42 42
6 6 7 6 6 5 4 6 11 11 10 12 19 26 28 27 25 24 23 24 28 29 29 30 32 34 35 37 39 39 39 38 37 37 37 38 40 41 41 41 40 40 39 39 39 39 38 37 36 36 38 38 39 39 39 38 37 38 37 38 39 41 39
8 7 7 7 8 8 8 6 4 10 12 12 16 19 18 17 18 21 21 22 25 26 26 28 33 35 37 39 39 38 37 37 37 38 39 39 41 41 40 40 39 38 38 39 39 38 37 36 35 35 36 37 38 39 38 36 36 36 36 37 38 39 37
8 9 8 9 11 11 11 11 7 1 6 8 12 15 17 20 21 21 22 23 23 23 26 32 36 37 37 36 33 32 34 35 38 40 40 40 41 40 39 39 36 35 37 38 37 36 35 35 35 34 35 35 36 37 37 36 35 34 35 36 36 37 37
6 8 9 10 15 17 15 13 11 8 6 4 2 8 16 21 21 20 21 21 20 23 31 37 39 38 36 34 31 32 34 36 37 40 40 40 39 37 37 37 36 36 37 36 35 34 33 34 34 33 33 34 35 34 34 35 36 34 34 33 34 35 36
8 10 12 13 18 20 17 13 12 11 11 11 6 3 12 18 18 18 18 17 19 28 35 35 33 32 32 32 32 34 36 37 38 39 39 37 36 35 35 37 37 37 37 35 34 33 33 32 32 31 31 31 32 33 33 34 35 34 32 32 32 34 35
10 10 10 11 14 16 14 11 11 12 13 15 13 6 4 13 17 17 15 17 26 35 35 30 26 26 26 28 31 33 35 37 39 39 38 37 37 36 35 35 35 35 35 34 33 31 30 30 30 29 28 27 27 29 30 31 32 32 30 30 30 30 32
10 10 10 9 11 14 13 9 8 12 14 15 16 12 6 4 10 13 15 22 30 32 28 26 25 25 26 30 32 33 35 37 39 40 40 40 39 37 35 35 35 34 34 34 32 30 28 28 29 28 26 26 25 26 27 29 29 29 27 26 27 27 29
8 9 10 10 12 14 13 9 9 11 12 14 15 13 11 8 7 7 12 20 24 22 24 27 27 27 30 33 34 36 38 38 39 40 40 40 40 39 37 36 35 33 33 33 32 30 27 26 27 28 26 26 26 26 27 27 27 27 24 22 23 25 26
6 7 8 9 10 12 11 9 10 11 11 13 16 14 12 10 8 7 10 13 14 16 22 27 26 27 30 32 34 36 37 35 34 36 37 38 38 38 38 37 36 33 31 31 30 29 27 26 26 26 25 26 26 27 28 26 25 25 24 21 21 22 23
4 4 5 6 8 9 7 6 6 7 8 11 14 15 13 10 9 9 10 10 10 12 18 24 27 28 30 32 33 33 33 32 31 32 33 34 35 35 34 36 36 34 33 32 31 29 28 27 27 25 24 25 25 26 27 26 25 24 24 23 22 22 22
5 4 5 6 8 8 6 4 4 4 5 6 10 12 11 10 10 11 11 11 9 8 11 18 24 26 28 31 32 31 32 33 33 32 32 33 33 32 32 34 35 35 36 39 38 36 32 29 29 29 28 27 27 26 25 24 26 26 26 25 25 25 26
7 8 8 9 11 11 9 7 6 6 6 7 9 11 10 10 10 10 11 11 9 8 8 10 13 16 18 21 24 26 30 32 34 35 34 34 34 35 35 37 41 41 39 38 38 40 41 39 35 34 34 33 32 30 26 25 27 26 24 23 25 28 30
8 8 9 11 12 12 12 11 10 10 9 9 12 13 13 13 12 12 12 12 10 7 5 6 7 7 8 11 16 21 24 26 28 30 31 32 34 36 35 35 37 38 36 33 31 32 38 42 41 39 37 36 33 31 28 26 26 23 21 22 24 26 27
7 7 9 12 11 10 11 12 13 12 10 10 12 13 14 14 13 11 10 9 7 4 3 4 4 4 2 4 10 17 21 23 24 27 30 33 36 37 33 27 23 24 29 35 36 31 31 35 38 38 36 33 30 27 24 23 22 22 21 22 22 21 20
10 10 11 12 12 10 10 11 11 11 10 10 11 12 13 13 12 10 7 4 3 1 1 3 6 7 6 3 3 10 18 23 25 26 28 29 31 33 33 30 28 26 25 28 32 31 29 28 29 31 30 27 25 24 22 21 22 22 22 22 20 19 19
Wind_Direction
198 201 201 201 202 202 203 202 201 202 201 201 201 200 199 199 198 198 199 199 200 200 200 199 200 200 202 204 206 207 208 210 210 211 213 215 217 217 215 215 215 215 215 215 218 221 223 225 223 222 223 224 225 224 223 223 222 223 227 227 228 230 230
199 205 202 200 203 203 204 203 202 203 202 203 202 200 199 199 198 198 199 200 200 201 200 199 200 201 202 204 206 207 208 209 210 211 211 213 215 216 216 216 216 216 217 217 220 222 223 224 223 222 223 224 225 224 223 223 223 224 227 227 228 229 230
201 206 202 201 203 202 204 203 203 204 203 203 202 200 200 200 199 199 199 199 200 201 200 200 200 201 202 203 205 207 208 209 210 210 210 211 213 215 216 217 218 218 218 218 220 222 223 223 223 223 223 223 224 224 223 224 224 225 227 228 229 230 229
203 205 203 203 202 202 204 203 203 205 205 205 202 201 202 201 201 200 200 199 199 199 200 200 200 201 202 203 205 207 208 209 210 210 211 212 212 213 214 216 218 218 219 219 220 222 222 222 222 222 223 223 223 223 224 225 225 226 227 228 230 230 230
206 207 205 204 203 203 205 204 203 204 206 207 204 203 203 202 200 199 200 201 200 200 201 200 200 201 202 204 205 207 208 209 210 210 212 212 212 211 212 215 217 218 219 220 220 221 222 221 221 221 221 221 221 223 224 225 227 227 227 228 230 229 229
207 207 203 203 202 203 205 204 204 204 206 207 205 205 204 200 198 199 200 201 201 202 202 201 201 201 202 204 206 207 208 209 209 210 211 212 212 211 213 215 217 218 219 220 221 221 220 220 220 221 221 220 221 222 223 225 226 227 227 228 230 229 229
207 204 203 203 200 203 205 204 205 204 206 207 206 205 201 197 198 199 199 200 201 201 201 201 202 202 203 204 206 207 208 208 209 209 210 211 212 212 214 216 217 218 219 220 221 220 219 219 220 221 221 220 221 222 223 225 226 227 227 228 229 229 229
210 204 204 201 199 203 204 203 205 204 205 206 204 202 198 197 198 198 199 200 200 200 201 202 202 202 204 204 205 207 208 208 208 208 209 210 212 213 214 216 217 218 219 220 221 220 219 219 220 221 221 220 221 222 223 225 226 226 227 228 228 228 229
215 207 205 200 198 203 203 203 204 201 200 201 201 199 197 197 198 198 199 199 198 200 202 203 202 202 203 204 206 207 208 208 208 208 208 209 211 213 214 216 217 217 218 220 221 220 220 220 221 221 221 220 220 221 222 225 226 226 227 227 228 227 228
220 213 207 200 199 203 204 202 201 196 196 198 199 199 197 197 198 198 199 198 198 201 203 202 201 202 203 204 206 207 207 208 208 207 208 209 211 213 214 215 216 217 218 219 220 220 220 221 221 220 220 220 220 220 222 224 225 226 227 228 228 228 229
226 221 213 204 202 203 202 200 198 195 195 196 196 198 197 197 198 197 198 198 200 203 203 201 200 201 202 204 205 206 207 208 208 208 209 210 211 213 213 214 215 215 217 218 218 219 219 219 220 219 220 220 220 220 221 223 224 226 227 228 229 229 230
216 212 212 210 206 205 201 198 198 197 196 196 196 196 197 196 196 197 198 200 201 202 200 199 200 200 202 203 203 205 207 207 208 209 209 211 212 213 213 213 214 215 216 217 216 217 218 219 219 219 220 221 220 220 222 223 225 226 228 229 229 229 230
209 199 203 207 207 207 202 198 200 198 195 196 196 196 196 195 196 197 198 200 201 200 198 197 198 199 200 201 203 205 206 207 208 209 210 212 213 213 213 213 214 215 215 216 215 215 217 218 219 220 221 221 221 221 222 223 225 227 228 229 228 228 229
210 202 199 200 206 208 202 199 201 198 196 196 196 197 196 196 197 197 198 200 200 198 197 197 197 198 200 200 202 205 206 207 208 209 210 212 213 214 214 214 214 215 215 214 214 215 217 218 219 221 222 222 222 222 223 223 225 226 227 227 227 227 229
222 214 203 199 202 203 201 203 202 197 196 196 194 194 194 195 197 198 199 200 198 197 197 196 195 197 199 200 203 206 207 206 207 208 210 212 213 214 214 214 215 215 214 214 215 216 218 219 220 221 221 222 222 222 223 223 225 226 226 225 225 226 228
236 225 210 202 198 196 199 203 202 197 196 194 193 193 192 193 195 196 198 198 197 197 197 195 195 197 198 201 205 206 206 205 205 207 208 210 212 213 213 214 214 214 214 214 215 216 217 218 220 221 221 222 222 222 222 224 225 226 226 226 225 226 228
231 227 216 209 203 199 198 197 195 196 198 197 196 194 192 193 194 195 196 196 196 197 197 194 195 197 200 203 205 205 203 203 204 206 207 210 211 212 212 213 213 214 214 213 214 215 216 217 218 220 221 222 222 222 223 224 226 226 226 226 227 228 228
219 219 216 212 203 190 187 190 192 195 200 201 198 195 194 193 192 193 195 196 197 198 195 194 196 198 202 205 205 203 202 203 203 204 206 208 210 210 210 211 212 213 214 213 213 214 214 215 217 219 220 221 222 223 224 226 227 227 226 227 228 230 231
231 222 211 201 192 188 190 192 194 195 197 198 197 197 196 192 190 194 197 199 199 196 193 195 198 200 204 205 203 202 203 202 202 204 206 207 208 208 208 208 210 212 213 214 213 212 213 215 217 218 219 219 221 223 225 227 227 227 226 227 230 232 233
261 254 231 204 190 195 200 199 199 198 195 195 198 201 199 195 194 199 201 199 197 193 193 196 199 202 204 205 203 203 203 201 202 204 206 206 205 205 206 208 210 212 213 213 212 212 213 215 216 217 218 219 220 223 225 226 227 227 227 227 231 235 235
230 237 252 234 208 204 201 193 188 190 194 199 201 200 197 198 201 203 202 198 194 193 195 198 200 203 205 204 204 203 202 201 203 204 205 204 202 203 206 208 210 211 211 211 211 212 214 214 215 217 218 219 221 222 225 227 227 227 227 228 233 237 236
272 215 206 222 228 224 215 204 197 194 196 199 198 195 197 202 204 203 200 197 195 196 198 199 201 204 205 204 204 204 202 201 202 203 203 201 201 203 206 208 210 210 209 209 211 213 214 214 215 216 217 219 220 222 224 227 227 227 227 229 234 237 234
342 335 330 280 237 231 231 234 234 225 212 201 194 194 199 203 203 199 196 196 196 198 199 200 203 205 205 205 206 205 204 203 202 202 201 200 201 204 206 208 209 209 208 208 210 212 213 214 215 215 217 218 219 220 223 226 227 227 227 229 234 235 230
360 3 1 3 8 359 320 251 232 233 233 216 205 204 203 201 198 194 193 195 196 197 198 201 205 206 206 207 207 205 205 203 202 201 201 202 204 206 207 208 209 208 207 207 209 211 213 213 214 215 216 217 218 220 222 224 226 227 226 229 234 232 227
2 9 5 14 21 9 354 345 237 213 206 202 209 212 206 197 192 191 194 198 197 197 200 204 208 209 208 209 208 206 204 203 202 203 204 205 207 207 207 208 209 208 207 208 210 212 212 212 213 214 215 216 218 220 221 222 225 225 226 230 233 230 224
3 2 359 5 11 9 14 29 40 172 203 202 208 206 199 196 193 192 198 200 197 198 204 208 210 211 212 212 209 206 205 204 204 205 207 208 209 208 208 208 208 207 208 209 210 211 211 211 212 213 214 215 217 219 219 220 222 225 226 229 231 227 221
1 5 5 1 3 7 15 28 40 46 34 8 263 206 198 196 194 197 202 199 197 205 211 212 212 211 211 211 207 206 207 207 207 208 210 211 210 208 208 207 206 206 207 208 209 208 209 210 210 211 213 214 214 216 216 218 221 224 226 227 227 225 219
9 11 8 5 6 7 5 6 16 28 30 25 21 215 200 193 193 203 204 197 203 215 218 218 216 212 211 209 206 206 206 207 208 209 211 213 210 208 207 207 206 206 206 206 206 206 206 206 205 206 208 210 211 212 213 216 220 222 223 223 223 222 220
10 8 4 4 5 4 1 360 360 359 5 17 23 15 209 196 198 204 202 205 217 221 221 221 218 214 211 209 209 209 209 208 208 208 209 210 209 207 206 205 204 205 204 203 203 203 202 201 198 197 197 199 202 207 209 211 216 219 221 221 220 220 220
9 5 2 360 358 0 5 7 355 349 356 10 17 14 1 245 221 215 211 220 227 226 222 219 216 211 209 209 210 211 211 210 209 208 207 207 205 204 204 202 201 201 201 199 198 198 197 193 189 187 186 185 187 193 200 204 209 212 215 215 215 216 216
12 7 3 359 356 0 5 7 359 352 355 5 11 12 8 350 309 266 243 238 238 234 225 219 215 211 209 210 211 211 211 211 209 207 207 205 202 200 199 197 195 196 195 194 193 192 190 186 183 182 178 176 177 180 187 194 199 201 203 205 209 212 212
18 10 6 3 0 1 6 13 12 4 356 358 3 8 8 1 348 322 288 270 262 250 233 222 215 213 212 212 213 213 211 209 207 206 205 203 200 200 198 194 191 189 188 188 188 187 184 180 179 178 173 171 172 173 177 183 188 191 191 191 199 204 205
41 23 12 4 360 1 8 21 24 18 5 353 354 360 2 357 346 332 312 298 288 266 241 224 215 214 214 213 214 213 210 206 204 203 201 198 198 197 195 192 189 184 182 183 183 182 179 177 176 173 169 166 167 168 171 174 177 181 181 180 183 189 193
31 28 21 11 3 360 6 21 26 27 20 356 350 355 358 353 342 333 326 321 316 298 261 233 220 218 219 217 214 209 205 202 199 196 193 192 192 191 189 187 185 184 187 188 184 179 175 175 174 173 169 166 163 161 162 167 174 177 177 177 180 184 189
24 20 16 15 13 9 10 11 7 8 10 4 4 3 359 354 344 331 327 325 316 308 296 269 245 234 229 222 214 207 203 200 196 193 189 185 182 182 184 186 186 188 191 191 189 185 181 177 174 174 172 169 166 163 161 166 174 178 180 184 189 190 192
32 26 18 18 19 16 13 9 4 3 2 4 11 12 5 360 354 343 337 331 315 298 302 308 294 267 239 219 208 203 199 195 193 189 184 179 173 170 173 179 186 189 186 182 186 192 188 180 176 175 173 170 169 173 178 179 178 178 184 190 192 191 191
42 35 25 25 25 18 13 10 8 6 4 3 9 14 15 15 12 1 349 340 327 323 2 26 27 17 319 233 207 197 189 182 180 179 176 174 171 167 159 150 148 157 164 169 177 186 187 181 176 174 174 173 171 173 181 185 181 179 181 184 183 182 184
49 47 41 36 34 28 18 13 13 18 25 26 25 26 29 30 25 19 17 18 11 15 94 106 90 71 44 9 214 195 185 177 172 169 168 170 171 168 156 133 115 111 123 145 163 172 175 176 172 167 169 174 173 169 170 175 178 178 177 177 176 177 183